www.pogodaiklimat.ru

Погода и климат >> Архив погоды >> Швейцария >> Эгль


ПОГОДА в Эгле

  • Прогноз погоды в Эгле
  • Монитор погоды в Эгле

АРХИВ ПОГОДЫ в Эгле

Время (UTC), дата Ветер
(напр.,м/с)
 
Видим.   Явления Облачность Т
(С)
Тd
(С)
f
(%)
Тe
(С)
Тes
(С)
Комфортность P
(гПа)
Po
(гПа)
Тmin
(С)
Tmax
(С)
R
(мм)
R24
(мм)
S
(см)
10 9.07 СЗ 4
{9}
н/о н/о +22.5 +16.0 67 +27 +27 душно 1013.9 970.5
11 9.07 СЗ 4
{9}
н/о н/о +23.0 +15.6 63 +27 +27 душно 1013.7 970.4
12 9.07 С 5
{9}
14 км мгла 8/8 500 м
[]
+23.8 +15.9 61 +27 +29 жарко 1013.1 969.9
13 9.07 С 4
{7}
н/о н/о +23.7 +16.0 62 +27 +27 жарко 1012.4 969.2
14 9.07 С 4
{8}
н/о н/о +24.1 +15.5 59 +27 +27 жарко 1011.8 968.7
15 9.07 С 4
{9}
25 км 6/6 1500 м
[]
+26.5 +14.6 48 +29 +32 жарко 1011.1 968.4
16 9.07 С 3
{8}
н/о н/о +25.8 +13.4 46 +28 +28 жарко 1010.9 968.1
17 9.07 С 5
{9}
н/о н/о +24.4 +12.0 46 +26 +26 жарко 1010.9 967.9
18 9.07 С 3 25 км 6/6 1500 м
[]
+24.2 +12.4 48 +26 +26 жарко 1011.3 968.3 +26.7
19 9.07 С 3
{6}
н/о н/о +21.5 +12.1 55 +24 +24 комфорт 1012.4 968.9
20 9.07 С 4
{7}
н/о н/о +21.3 +11.6 54 +23 +23 комфорт 1012.7 969.2
21 9.07 С 4
{9}
н/о н/о +20.6 +11.1 54 +23 +23 комфорт 1013.1 969.4
22 9.07 С 3
{10}
н/о н/о +19.1 +11.5 61 +20 +20 1013.9 970.0
23 9.07 СЗ 1
{3}
н/о н/о +16.0 +12.4 79 +17 +17 1014.4 970.0
00 10.07 С 2
{10}
н/о н/о +15.8 +12.0 78 +16 +16 1014.6 970.1
01 10.07 Ю 1
{3}
н/о н/о +14.5 +12.1 86 +16 +16 1015.0 970.3
02 10.07 штиль 0
{2}
н/о н/о +13.1 +11.8 92 +13 +13 1015.3 970.4
03 10.07 СВ 1
{4}
15 км ясно +15.4 +11.0 75 +16 +16 1015.4 970.8
04 10.07 СЗ 1
{3}
н/о н/о +13.6 +10.8 83 +15 +15 1016.1 971.2
05 10.07 СЗ 2
{3}
н/о н/о +14.6 +10.4 76 +15 +15 1016.0 971.3
06 10.07 С 2 30 км 1/1 1500 м
[]
+16.1 +11.0 72 +16 +19 1016.2 971.7 +12.9
07 10.07 С 4
{6}
н/о н/о +17.0 +10.4 65 +17 +17 1016.4 972.0
08 10.07 С 4
{7}
н/о н/о +17.8 +10.4 62 +18 +18 1016.3 972.1
09 10.07 С 4
{8}
35 км ясно +19.3 +11.1 59 +20 +29 1015.9 971.9
10 10.07 С 5
{8}
н/о н/о +20.5 +11.4 56 +22 +22 комфорт 1015.7 971.9
11 10.07
{8}
н/о н/о +21.5 +11.5 53 1015.2 971.6
12 10.07 С 5
{8}
35 км 1/1 1500 м
[]
+23.6 +12.5 50 +26 +34 жарко 1014.6 971.3
13 10.07 С 6
{10}
н/о н/о +24.7 +12.7 47 +27 +27 жарко 1014.1 971.0
14 10.07 С 5
{10}
н/о н/о +25.7 +11.9 42 +27 +27 жарко 1013.5 970.6
15 10.07
{11}
н/о н/о +25.9 +10.5 38 1013.4 970.5
16 10.07 С 5
{11}
н/о н/о +25.8 +8.4 33 +26 +26 жарко 1013.5 970.6
17 10.07 С 4
{8}
н/о н/о +25.2 +8.3 34 +26 +26 жарко 1013.7 970.7
18 10.07 СЗ 3 35 км 1/0
[]
+23.6 +8.2 37 +24 +25 комфорт 1014.0 970.8 +26.3
19 10.07 СЗ 1
{4}
н/о н/о +21.6 +8.0 42 +23 +23 комфорт 1014.4 970.8
20 10.07 Ю 1
{2}
н/о н/о +16.4 +11.0 70 +17 +17 1015.9 971.5
21 10.07 Ю 1
{4}
н/о н/о +15.5 +11.0 75 +17 +17 1016.3 971.7
22 10.07 Ю 1
{2}
н/о н/о +15.4 +10.6 73 +16 +16 1016.4 971.8
23 10.07 ЮВ 1
{1}
н/о н/о +13.1 +11.2 88 +14 +14 1017.0 972.0
00 11.07 ЮВ 1
{4}
н/о н/о +13.3 +10.6 84 +13 +13 1016.4 971.5
01 11.07 В 1
{1}
н/о н/о +12.2 +10.6 90 +13 +13 1016.2 971.1
02 11.07 штиль 0
{1}
н/о н/о +12.0 +10.3 89 +11 +11 1015.9 970.8
03 11.07 штиль 0
{1}
45 км ясно +11.0 +10.0 94 +10 +10 1016.0 970.7
04 11.07 ЮВ 2
{3}
н/о н/о +12.9 +10.7 86 +12 +12 1015.5 970.5
05 11.07 Ю 2
{3}
н/о н/о +13.9 +11.6 86 +14 +14 1015.2 970.4
06 11.07 С 1 20 км 9/0
[]
+16.5 +11.4 72 +17 +19 1015.3 970.9 +10.9
07 11.07 Ю 1
{3}
н/о н/о +17.4 +13.0 75 +18 +18 1014.8 970.6
08 11.07 С 2
{3}
н/о н/о +19.1 +12.5 66 +21 +21 комфорт 1015.0 971.0
09 11.07 СЗ 2
{3}
20 км 10/0
[]
+19.8 +11.6 59 +22 +29 комфорт 1014.6 970.8
10 11.07 СЗ 3
{6}
н/о н/о +20.8 +12.7 60 +24 +24 комфорт 1014.8 971.1
11 11.07 С 2
{6}
н/о н/о +21.1 +12.4 58 +23 +23 комфорт 1014.2 970.6
12 11.07 С 4
{6}
25 км 10/10 1500 м
[]
+21.9 +12.1 54 +24 +24 комфорт 1013.8 970.3
13 11.07 С 3
{6}
н/о н/о +20.8 +12.0 57 +23 +23 комфорт 1013.8 970.1
14 11.07 СЗ 2
{3}
н/о н/о +21.1 +12.5 58 +23 +23 комфорт 1013.7 970.1
15 11.07 З 2
{6}
25 км 10/0 2000 м
[]
+21.1 +12.8 59 +23 +23 комфорт 1014.0 970.4
16 11.07 З 1
{3}
н/о н/о +21.1 +12.6 58 +23 +23 комфорт 1014.0 970.4
17 11.07 С 1
{2}
н/о н/о +21.1 +13.8 63 +24 +24 комфорт 1014.2 970.6
18 11.07 С 1
{6}
20 км 10/0 2000 м
[]
+20.0 +15.0 73 +24 +24 комфорт 1014.8 971.0 +22.7
19 11.07 С 1
{1}
н/о н/о +19.1 +15.1 78 +22 +22 комфорт 1015.1 971.1
20 11.07 З 1
{1}
н/о н/о +17.2 +15.2 88 +19 +19 1015.5 971.2
21 11.07 В 1
{2}
н/о н/о +16.5 +14.6 89 +17 +17 1015.8 971.4
22 11.07 Ю 1
{1}
н/о н/о +15.8 +14.4 91 +17 +17 1015.8 971.3
23 11.07 В 2
{2}
н/о н/о +14.4 +13.1 92 +14 +14 1016.0 971.3
00 12.07 З 1
{2}
н/о н/о +13.8 +12.6 92 +15 +15 1016.0 971.2
01 12.07 Ю 1
{2}
н/о н/о +13.7 +12.0 89 +14 +14 1015.7 970.9
02 12.07 Ю 1
{2}
н/о н/о +12.2 +11.4 95 +12 +12 1015.9 970.8
03 12.07 Ю 2
{2}
40 км 4/0
[]
+11.8 +10.8 94 +11 +11 1015.9 970.7
04 12.07
{3}
н/о н/о +13.0 +11.2 89 1016.2 971.2
05 12.07 Ю 2
{3}
н/о н/о +13.7 +12.3 91 +13 +13 1016.1 971.2
06 12.07 Ю 1
{3}
30 км 6/0 2000 м
[]
+15.6 +13.4 87 +17 +19 1015.8 971.3 +11.5
07 12.07 С 1
{2}
н/о н/о +18.9 +11.7 63 +21 +21 комфорт 1015.3 971.3
08 12.07 В 1
{2}
н/о н/о +20.7 +12.0 57 +24 +24 комфорт 1015.0 971.3
09 12.07 СЗ 2
{3}
30 км 8/0 2000 м
[]
+23.4 +12.5 50 +26 +35 жарко 1014.4 971.1
10 12.07 С 2
{4}
н/о н/о +24.7 +12.2 46 +26 +26 жарко 1013.7 970.6
11 12.07 СЗ 3
{6}
н/о н/о +26.1 +13.0 44 +28 +28 жарко 1013.1 970.3
12 12.07 СЗ 4
{7}
30 км 9/0 2000 м
[]
+24.8 +14.0 51 +27 +35 жарко 1012.9 969.9
13 12.07 СЗ 3
{6}
н/о н/о +24.4 +12.6 48 +26 +26 жарко 1012.8 969.7
14 12.07 З 3
{5}
н/о н/о +27.1 +12.7 41 +29 +29 жарко 1012.0 969.4
15 12.07 СЗ 3
{6}
25 км 8/0
[]
+25.6 +12.0 43 +27 +32 жарко 1011.9 969.1
16 12.07 С 5
{9}
н/о н/о +26.9 +12.3 40 +28 +28 жарко 1011.4 968.8
17 12.07
{13}
н/о н/о +25.4 +12.7 45 1012.0 969.1
18 12.07 С 6
{13}
30 км 8/0 2000 м
[]
+24.6 +12.9 48 +27 +27 жарко 1012.4 969.4 +27.3
19 12.07 С 6
{9}
н/о н/о +23.9 +13.1 51 +26 +26 жарко 1013.1 969.9
20 12.07 С 5
{8}
н/о н/о +23.7 +12.2 48 +25 +25 комфорт 1013.6 970.4
21 12.07 С 6
{9}
н/о н/о +23.2 +13.1 53 +26 +26 жарко 1014.2 970.9
22 12.07 С 4
{10}
н/о н/о +22.6 +12.8 54 +25 +25 комфорт 1014.4 971.0
23 12.07 СЗ 3
{6}
н/о н/о +21.2 +13.4 61 +24 +24 комфорт 1014.8 971.2
00 13.07 С 3
{10}
н/о н/о +20.9 +13.3 62 +24 +24 комфорт 1014.9 971.2
01 13.07 Ю 1
{6}
н/о н/о +18.1 +13.8 76 +19 +19 1015.0 970.9
02 13.07 С 5
{8}
н/о н/о +17.1 +14.5 85 +16 +16 1015.6 971.3 2
03 13.07 В 2
{8}
18 км в посл. час ливневой дождь 8/0 2000 м
[]
+16.5 +15.5 94 +17 +17 1015.8 971.4 0.2
04 13.07 В 1
{2}
н/о н/о +15.3 +14.7 96 +16 +16 1016.3 971.7 0.1
05 13.07 Ю 1
{3}
н/о н/о +16.3 +15.3 94 +17 +17 1016.4 971.9
06 13.07 В 1
{8}
25 км {дождь} 5/5 1410 м
[]
+18.0 +16.1 89 +19 +21 1016.4 972.2 +15.3
07 13.07 В 1
{2}
н/о н/о +19.5 +16.4 82 +23 +23 комфорт 1016.3 972.3
08 13.07 С 2
{4}
н/о н/о +20.6 +14.4 68 +24 +24 комфорт 1016.2 972.4
09 13.07 С 5
{9}
30 км 4/4 1410 м
[]
+22.6 +12.7 54 +25 +29 комфорт 1015.4 972.0
10 13.07 СЗ 6
{9}
н/о н/о +23.3 +11.0 46 +26 +26 жарко 1015.4 972.1
11 13.07 С 6
{11}
н/о н/о +23.7 +9.8 41 +25 +25 комфорт 1015.1 971.8
12 13.07 СЗ 6
{12}
35 км 4/4 1500 м
[]
+25.3 +9.6 37 +26 +31 жарко 1014.8 971.8
13 13.07 СЗ 5
{10}
н/о н/о +25.7 +9.0 35 +26 +26 жарко 1014.3 971.4
14 13.07 СЗ 5
{10}
н/о н/о +25.8 +7.3 31 +26 +26 жарко 1014.1 971.2
15 13.07 СЗ 5
{11}
35 км 3/3 1500 м
[]
+26.0 +8.0 32 +26 +30 жарко 1013.9 971.0
16 13.07 СЗ 5
{10}
н/о н/о +25.4 +8.3 34 +26 +26 жарко 1014.0 971.0
17 13.07 СЗ 4
{9}
н/о н/о +24.6 +8.5 36 +25 +25 комфорт 1014.1 971.0
18 13.07 СЗ 3
{11}
35 км 4/0 2000 м
[]
+23.0 +8.5 39 +24 +25 комфорт 1014.4 971.1 +26.4
19 13.07 СЗ 3
{7}
н/о н/о +22.2 +8.8 42 +24 +24 комфорт 1014.9 971.4
20 13.07 СЗ 5
{9}
н/о н/о +21.4 +9.1 45 +23 +23 комфорт 1015.3 971.7
21 13.07 С 3
{9}
н/о н/о +19.3 +9.5 53 +21 +21 комфорт 1015.8 971.8
22 13.07 З 2
{5}
н/о н/о +18.2 +9.4 56 +19 +19 1015.9 971.8
23 13.07 Ю 1
{2}
н/о н/о +15.4 +10.5 73 +16 +16 1016.2 971.6
00 14.07 Ю 2
{9}
н/о н/о +13.9 +10.6 80 +14 +14 1016.0 971.2
01 14.07 Ю 1
{2}
н/о н/о +12.5 +10.4 87 +12 +12 1015.9 970.9
02 14.07 З 1
{1}
н/о н/о +11.8 +9.9 88 +12 +12 1015.9 970.7
03 14.07 Ю 1
{2}
40 км ясно +11.8 +9.6 86 +12 +12 1015.6 970.5
04 14.07 ЮЗ 1
{2}
н/о н/о +11.3 +9.9 91 +12 +12 1015.5 970.3
05 14.07 Ю 2
{2}
н/о н/о +11.5 +10.0 90 +11 +11 1015.3 970.1
06 14.07 С 1
{2}
40 км ясно +15.1 +11.2 78 +16 +20 1014.6 970.0 +10.1
07 14.07 СЗ 2
{2}
н/о н/о +17.8 +11.0 64 +19 +19 1014.1 970.0
08 14.07
{5}
н/о н/о +20.3 +11.6 57 1013.6 969.9
09 14.07 С 4
{7}
45 км 1/1 1500 м
[]
+21.4 +11.1 52 +23 +31 комфорт 1013.1 969.6
10 14.07 С 4
{8}
н/о н/о +22.0 +11.0 50 +24 +24 комфорт 1012.3 968.9
11 14.07 С 6
{11}
н/о н/о +24.9 +12.3 45 +27 +27 жарко 1011.2 968.3
12 14.07 С 6
{11}
35 км 3/3 1500 м
[]
+24.6 +12.2 46 +26 +31 жарко 1010.7 967.8
13 14.07 СЗ 5
{12}
н/о н/о +25.8 +10.6 38 +27 +27 жарко 1010.0 967.3
14 14.07 СЗ 4
{10}
н/о н/о +24.8 +10.0 39 +26 +26 жарко 1009.9 967.0
15 14.07 СЗ 3
{12}
40 км 5/5 1500 м
[]
+25.4 +9.8 37 +26 +30 жарко 1009.4 966.6
16 14.07 СЗ 3
{7}
н/о н/о +26.0 +8.4 33 +26 +26 жарко 1008.9 966.2
17 14.07 С 3
{8}
н/о н/о +24.4 +7.5 34 +25 +25 комфорт 1009.1 966.2
18 14.07 СЗ 7
{12}
30 км 9/9 1500 м
[]
+21.8 +11.6 52 +24 +24 комфорт 1010.0 966.7 +26.2
19 14.07 С 6
{13}
н/о н/о +20.7 +11.3 55 +22 +22 комфорт 1010.5 967.0
20 14.07 С 7
{12}
н/о н/о +20.1 +10.8 55 +21 +21 комфорт 1010.9 967.3
21 14.07 С 9
{14}
н/о н/о +16.6 +12.7 78 +15 +15 1012.3 968.1 0.4
22 14.07 С 7
{11}
н/о н/о +16.2 +12.8 80 +15 +15 1012.8 968.5 0.2
23 14.07 Ю 3
{11}
н/о н/о +15.8 +12.5 81 +15 +15 1013.0 968.6
00 15.07 Ю 2
{14}
н/о н/о +15.7 +12.7 82 +16 +16 1012.5 968.1
01 15.07 З 1
{4}
н/о н/о +15.5 +12.3 81 +17 +17 1012.6 968.2
02 15.07 С 2
{5}
н/о н/о +14.9 +12.0 83 +15 +15 1012.7 968.2
03 15.07 ЮВ 2
{5}
15 км {дождь} 10/10 1200 м
[]
+14.8 +12.7 87 +15 +15 1012.7 968.2
04 15.07 СЗ 1
{2}
н/о н/о +14.2 +12.9 92 +14 +14 1013.3 968.6 0.5
05 15.07 ЮВ 3
{4}
н/о н/о +14.0 +13.2 95 +13 +13 1013.3 968.6 0.7
06 15.07 Ю 1
{5}
25 км в посл. час дождь 10/10 1500 м
[]
+14.4 +12.5 88 +15 +15 1013.5 968.9 +14.0 0.1
07 15.07 ЮВ 2
{4}
н/о н/о +14.9 +12.8 87 +15 +15 1013.7 969.1
08 15.07 ЮВ 3
{5}
н/о н/о +15.6 +12.5 82 +15 +15 1013.8 969.3
09 15.07 ЮВ 1
{5}
25 км {дождь} 8/8 600 м
[]
+16.8 +11.0 69 +18 +21 1013.9 969.6
10 15.07 В 1
{4}
н/о н/о +18.9 +10.3 57 +21 +21 комфорт 1013.1 969.2
11 15.07 ЮВ 2
{5}
н/о н/о +19.6 +10.2 55 +22 +22 комфорт 1012.8 969.0
12 15.07 СЗ 4
{6}
35 км 4/4 1500 м
[]
+22.8 +11.4 49 +25 +33 комфорт 1012.0 968.7
13 15.07
{8}
н/о н/о +22.4 +12.0 52 1012.2 968.9
14 15.07 С 5
{9}
н/о н/о +22.5 +11.9 51 +25 +25 комфорт 1012.3 969.0
15 15.07 СЗ 4
{9}
30 км 5/0 2000 м
[]
+22.0 +11.2 50 +24 +29 комфорт 1012.4 969.0
16 15.07 СЗ 5
{9}
н/о н/о +22.3 +11.5 50 +24 +24 комфорт 1012.3 968.9
17 15.07 С 4
{8}
н/о н/о +22.4 +12.3 53 +25 +25 комфорт 1012.5 969.1
18 15.07 СЗ 3
{9}
28 км 8/0 2000 м
[]
+21.8 +11.6 52 +24 +24 комфорт 1013.0 969.5 +24.1
19 15.07 СЗ 2
{6}
н/о н/о +21.2 +11.6 54 +23 +23 комфорт 1013.3 969.7
20 15.07 С 3
{7}
н/о н/о +19.6 +12.0 61 +21 +21 комфорт 1014.3 970.4
21 15.07 С 1
{7}
н/о н/о +17.4 +11.9 70 +18 +18 1015.2 971.0
22 15.07 ЮВ 1
{3}
н/о н/о +15.5 +11.2 76 +16 +16 1016.0 971.4
23 15.07 Ю 2
{3}
н/о н/о +15.1 +11.9 81 +15 +15 1016.2 971.6
00 16.07 Ю 2
{7}
н/о н/о +13.4 +11.8 90 +13 +13 1016.7 971.8
01 16.07 ЮВ 2
{2}
н/о н/о +12.9 +11.0 88 +12 +12 1017.0 972.0
02 16.07 Ю 1
{3}
н/о н/о +12.0 +10.9 93 +12 +12 1017.4 972.2
03 16.07 Ю 2
{3}
25 км ясно +11.4 +10.4 94 +10 +10 1017.4 972.1
04 16.07 Ю 2
{3}
н/о н/о +11.9 +10.6 92 +11 +11 1017.3 972.1
05 16.07 В 1
{2}
н/о н/о +12.7 +10.5 86 +14 +14 1017.5 972.4
06 16.07 ЮВ 2
{4}
35 км ясно +16.6 +12.6 77 +17 +20 1016.8 972.4 +10.6
07 16.07 ЮВ 2
{3}
н/о н/о +19.1 +12.2 64 +21 +21 комфорт 1016.6 972.6
08 16.07 С 2
{4}
н/о н/о +21.0 +12.3 58 +24 +24 комфорт 1016.2 972.5
09 16.07 С 3
{5}
35 км 1/1 1500 м
[]
+22.5 +12.2 52 +25 +36 комфорт 1015.8 972.3

 

Местоположение метеостанции Эгль (Швейцария): широта 46.33 долгота 6.92 высота над уровнем моря 383 м.

В архиве по умолчанию представлена погода в Эгле за последнюю неделю. Архивные данные за месяц целиком и за предыдущие месяцы, начиная с января 2011 года, Вы можете получить, выбрав интересующий диапазон дат из раскрывающегося списка и нажав кнопку "Ввод!".


*Определитесь, кто Вы:
робот инопланетянин человек

Внимание! Время в таблицах - всемирное. Для получения местного времени необходимо прибавить поправку, которая равна 1 ч.

Смотрите также архив погоды в соседних городах и на ближайших метеорологических станциях:

Погода в Ле-Бувре (Швейцария) (9 км)
Погода в Монтрё-Кларане (Швейцария) (13 км)
Погода в Коль де Моссе (Швейцария) (15 км)
Погода в Эвьоне (Швейцария) (19 км)
Погода на Ле-Дьяблере (Швейцария) (22 км)
Погода в Шато-Д`о (Швейцария) (24 км)
Погода в Сальване (Швейцария) (25 км)
Погода на Молезоне (Швейцария) (26 км)
Погода в Ороне (Швейцария) (27 км)
Погода в Пюли (Швейцария) (29 км)

Пояснения к столбцам:

Ветер - указаны скорость ветра в м/с - средняя за 10 мин, порывы в срок и между сроками (в фигурных скобках) и направление, откуда дует ветер: С - северный, СВ - северо-восточный, В - восточный, ЮВ - юго-восточный, Ю - южный, ЮЗ - юго-западный, З - западный, СЗ - северо-западный.
Видимость - горизонтальная дальность видимости в метрах или километрах. При видимости от 1 до 10 км при отсутствии осадков обычно наблюдается дымка, при ухудшении видимости до 1 км и менее - туман. В сухую погоду видимость может ухудшаться дымом, пылью или мглою.
Явления - указаны атмосферные явления, наблюдавшиеся в срок или в последний час перед сроком; фигурными скобками обозначены явления, наблюдавшиеся между сроками (за 1-3 часа до срока); квадратными скобками обозначены град или гололедные отложения с указанием их диаметра в мм.
Облачность - указаны через наклонную черту общая и нижняя облачность в баллах и высота нижней границы облаков в метрах; квадратными скобками обозначены формы облаков: Ci - перистые, Cs - перисто-слоистые, Cc - перисто-кучевые, Ac - высококучевые, As - высокослоистые, Sc - слоисто-кучевые, Ns - слоисто-дождевые, Cu - кучевые, Cb - кучево-дождевые. Подробнее классификацию облаков см. в Атласе облаков (PDF).
T - Температура воздуха - температура, измеренная на высоте 2 м над землей.
Td - Температура точки росы - температура, при понижении до которой содержащийся в воздухе водяной пар достигнет насыщения.
f - Относительная влажность воздуха - влажноcть воздуха, измеренная на высоте 2 м над землей.
Te - Эффективная температура - температура, которую ощущает одетый по сезону человек в тени. Характеристика душности погоды. При расчете учитывается влияние влажности воздуха и скорости ветра на теплоощущения человека.
Tes - Эффективная температура на солнце - температура, которую ощущает человек, с поправкой на солнечный нагрев. Характеристика знойности погоды. Зависит от высоты солнца над горизонтом, облачности и скорости ветра. Ночью, в пасмурную погоду, а также при ветре 12 м/с и более поправка равна нулю.
P - Атмосферное давление - приведенное к уровню моря атмосферное давление.
Po - Атмосферное давление - измеренное на уровне метеостанции атмосферное давление.
Tmin - Минимальная температура - минимум температуры воздуха на высоте 2 м над землей.
Tmax - Максимальная температура - максимум температуры воздуха на высоте 2 м над землей.
R - Количество осадков - Количество выпавших осадков за период времени, мм. При наведении курсора мыши на число - период времени, за который выпало указанное количество осадков.
R24 - Количество осадков - Количество выпавших осадков за 24 часа, мм.
S - Снежный покров - Высота снежного покрова, см. При наведении курсора мыши на число - состояние снежного покрова и степень покрытия местности в баллах.